Stad Amsterdam — PECA — position and weather

sailwx.info

Track history (hours):
 
Tides and Currents Weather Stations Pressure Air Temp Water Temp Dewpoint Dewpoint Depression Visibility Wind Speed Wind Dir Waves Ship Positions

Stad Amsterdam (Netherlands)

Ship's website: http://www.stadamsterdam.com/content/home/index.xml

Last reported at 2017-Nov-23 14:24 UTC. Time now 2017-Nov-23 14:38 UTC.
Position N 41°11' W 008°42'.

Length 76 m; beam 10 m.

Type: Sailing vessel. MMSI: 246494000.

Date/timePositionNaut miles runAvg speedWind from/ knotsBaromVisibWave heightAir tempDewpointWater temp
2017-Nov-23 14:24N 41°11' W 008°42'0 0.0
2017-Nov-23 14:00N 41°11' W 008°42'0 0.0
2017-Nov-23 13:30N 41°11' W 008°42'2 4.6
2017-Nov-23 13:01N 41°09' W 008°43'2 3.2
2017-Nov-23 12:30N 41°10' W 008°45'3 5.2
2017-Nov-23 11:55N 41°13' W 008°46'  
2017-Nov-19 00:04N 47°06' W 007°18'8 8.8
2017-Nov-18 23:08N 47°14' W 007°13'2 9.0
2017-Nov-18 22:55N 47°16' W 007°11'4 9.2
2017-Nov-18 22:27N 47°19' W 007°09'5 9.8
2017-Nov-18 21:58N 47°24' W 007°06'510.2
2017-Nov-18 21:26N 47°29' W 007°02'510.1
2017-Nov-18 20:59N 47°33' W 006°59'510.2
2017-Nov-18 20:29N 47°37' W 006°55'510.1
2017-Nov-18 19:59N 47°41' W 006°51'610.1
2017-Nov-18 19:25N 47°46' W 006°47'7 9.7
2017-Nov-18 18:41N 47°52' W 006°42'2 9.5
2017-Nov-18 18:28N 47°54' W 006°41'4 9.3
2017-Nov-18 17:59N 47°58' W 006°38'11 8.8
2017-Nov-18 16:46N 48°08' W 006°31'46 7.9
2017-Nov-18 10:57N 48°47' W 005°54'234 6.5
2017-Nov-16 23:05N 50°33' W 000°31'1 6.8
2017-Nov-16 23:00N 50°33' W 000°30'4 8.6
2017-Nov-16 22:30N 50°34' W 000°24'5 9.9
2017-Nov-16 22:00N 50°35' W 000°16'510.1
2017-Nov-16 21:30N 50°36' W 000°09'5 9.1
2017-Nov-16 21:00N 50°37' W 000°02'4 8.1
2017-Nov-16 20:30N 50°38' E 000°05'3 5.8
2017-Nov-16 20:01N 50°38' E 000°09'1 2.2
2017-Nov-16 19:30N 50°38' E 000°11'1 2.4
2017-Nov-16 19:00N 50°39' E 000°13'1 2.8
2017-Nov-16 18:30N 50°40' E 000°14'1 2.9
2017-Nov-16 18:01N 50°42' E 000°14'2 3.1
2017-Nov-16 17:31N 50°43' E 000°14'2 2.2
2017-Nov-16 16:50N 50°42' E 000°13'5 4.6
2017-Nov-16 15:43N 50°37' E 000°15'1 4.0
2017-Nov-16 15:28N 50°38' E 000°16'3 5.7
2017-Nov-16 15:01N 50°40' E 000°17'3 5.9
2017-Nov-16 14:31N 50°43' E 000°18'1 2.4
2017-Nov-16 14:00N 50°42' E 000°19'3 4.7
2017-Nov-16 13:28N 50°40' E 000°21'2 3.9
2017-Nov-16 13:00N 50°39' E 000°24'2 3.7
2017-Nov-16 12:24N 50°37' E 000°26'3 6.6
2017-Nov-16 12:00N 50°38' E 000°30'3 6.5
2017-Nov-16 11:31N 50°39' E 000°34'4 7.0
2017-Nov-16 11:00N 50°41' E 000°39'4 7.5
2017-Nov-16 10:31N 50°43' E 000°44'3 6.7
2017-Nov-16 10:00N 50°45' E 000°48'3 7.0
2017-Nov-16 09:31N 50°47' E 000°53'4 7.0
2017-Nov-16 08:59N 50°49' E 000°57'13 7.3
2017-Nov-16 07:11N 50°58' E 001°13'2 8.7
2017-Nov-16 06:59N 50°59' E 001°16'5 9.4
2017-Nov-16 06:30N 51°01' E 001°21'510.3
2017-Nov-16 06:00N 51°05' E 001°28'510.8
2017-Nov-16 05:31N 51°08' E 001°34'510.2
2017-Nov-16 05:00N 51°11' E 001°40'5 9.6
2017-Nov-16 04:31N 51°15' E 001°46'5 9.4
2017-Nov-16 04:01N 51°19' E 001°50'4 8.7
2017-Nov-16 03:30N 51°23' E 001°53'4 8.1
2017-Nov-16 03:01N 51°27' E 001°54'4 7.4
2017-Nov-16 02:31N 51°30' E 001°58'4 6.8
2017-Nov-16 01:58N 51°32' E 002°02'92 7.9
2017-Nov-15 14:23N 52°31' E 003°57'3 9.2
2017-Nov-15 14:01N 52°31' E 004°03'4 8.8
2017-Nov-15 13:31N 52°31' E 004°10'4 8.9
2017-Nov-15 13:00N 52°31' E 004°18'4 8.4
2017-Nov-15 12:30N 52°30' E 004°24'4 8.4
2017-Nov-15 12:00N 52°28' E 004°31'3 5.1
2017-Nov-15 11:28N 52°28' E 004°35'0 0.5
2017-Nov-15 11:01N 52°28' E 004°35'0 0.4
2017-Nov-15 10:30N 52°28' E 004°35'0 0.2
2017-Nov-15 10:00N 52°28' E 004°35'0 0.1
2017-Nov-15 09:30N 52°28' E 004°35'0 0.6
2017-Nov-15 08:58N 52°28' E 004°35'0 0.0
2017-Nov-15 08:28N 52°28' E 004°35'0 0.0
2017-Nov-15 07:58N 52°28' E 004°35'0 0.0
2017-Nov-15 07:28N 52°28' E 004°35'0 0.0
2017-Nov-15 06:58N 52°28' E 004°35'0 0.0
2017-Nov-15 06:28N 52°28' E 004°35'0 0.0
2017-Nov-15 05:58N 52°28' E 004°35'0 0.0
2017-Nov-15 05:28N 52°28' E 004°35'0 0.0
2017-Nov-15 04:58N 52°28' E 004°35'0 0.0
2017-Nov-15 04:28N 52°28' E 004°35'0 0.0
2017-Nov-15 03:58N 52°28' E 004°35'0 0.0
2017-Nov-15 03:28N 52°28' E 004°35'0 0.0
2017-Nov-15 02:55N 52°28' E 004°35'0 0.0
2017-Nov-15 02:28N 52°28' E 004°35'0 0.0
2017-Nov-15 01:58N 52°28' E 004°35'0 0.0
2017-Nov-15 01:28N 52°28' E 004°35'0 0.0
2017-Nov-15 00:58N 52°28' E 004°35'0 0.0
2017-Nov-15 00:28N 52°28' E 004°35'0 0.0
2017-Nov-14 23:58N 52°28' E 004°35'0 0.0
2017-Nov-14 23:28N 52°28' E 004°35'0 0.0
2017-Nov-14 22:58N 52°28' E 004°35'0 0.0
2017-Nov-14 22:19N 52°28' E 004°35'0 0.0
2017-Nov-14 21:58N 52°28' E 004°35'0 0.0
2017-Nov-14 21:28N 52°28' E 004°35'0 0.0
2017-Nov-14 20:58N 52°28' E 004°35'0 0.0
2017-Nov-14 20:30N 52°28' E 004°35'0 0.0
2017-Nov-14 20:00N 52°28' E 004°35'0 0.0
2017-Nov-14 19:30N 52°28' E 004°35'0 0.0
2017-Nov-14 19:00N 52°28' E 004°35'0 0.0
2017-Nov-14 18:30N 52°28' E 004°35'0 0.0
2017-Nov-14 18:00N 52°28' E 004°35'0 0.0
2017-Nov-14 17:30N 52°28' E 004°35'0 0.0
2017-Nov-14 17:00N 52°28' E 004°35'0 0.0
2017-Nov-14 16:30N 52°28' E 004°35'0 0.0
2017-Nov-14 16:00N 52°28' E 004°35'0 0.0
2017-Nov-14 15:30N 52°28' E 004°35'0 0.0
2017-Nov-14 15:00N 52°28' E 004°35'0 0.0
2017-Nov-14 14:30N 52°28' E 004°35'0 0.0
2017-Nov-14 14:00N 52°28' E 004°35'0 0.0
2017-Nov-14 13:30N 52°28' E 004°35'0 0.0
2017-Nov-14 13:00N 52°28' E 004°35'0 0.0
2017-Nov-14 12:30N 52°28' E 004°35'0 0.0
2017-Nov-14 12:00N 52°28' E 004°35'0 0.0
2017-Nov-14 11:30N 52°28' E 004°35'0 0.0
2017-Nov-14 11:00N 52°28' E 004°35'0 0.0
2017-Nov-14 10:30N 52°28' E 004°35'0 0.0
2017-Nov-14 10:00N 52°28' E 004°35'0 0.0
2017-Nov-14 09:30N 52°28' E 004°35'0 0.0
2017-Nov-14 09:00N 52°28' E 004°35'0 0.0
2017-Nov-14 08:30N 52°28' E 004°35'0 0.0
2017-Nov-14 08:00N 52°28' E 004°35'0 0.0
2017-Nov-14 07:30N 52°28' E 004°35'0 0.0
2017-Nov-14 07:00N 52°28' E 004°35'0 0.0
2017-Nov-14 06:30N 52°28' E 004°35'0 0.0
2017-Nov-14 06:00N 52°28' E 004°35'0 0.0
2017-Nov-14 05:30N 52°28' E 004°35'0 0.0
2017-Nov-14 05:00N 52°28' E 004°35'0 0.0
2017-Nov-14 04:30N 52°28' E 004°35'0 0.0
2017-Nov-14 04:00N 52°28' E 004°35'0 0.0
2017-Nov-14 03:30N 52°28' E 004°35'0 0.0
2017-Nov-14 03:00N 52°28' E 004°35'0 0.0
2017-Nov-14 02:27N 52°28' E 004°35'0 0.0
2017-Nov-14 02:00N 52°28' E 004°35'0 0.0
2017-Nov-14 01:30N 52°28' E 004°35'0 0.0
2017-Nov-14 01:00N 52°28' E 004°35'0 0.0
2017-Nov-14 00:30N 52°28' E 004°35'0 0.0
2017-Nov-14 00:00N 52°28' E 004°35'0 0.0
2017-Nov-13 23:30N 52°28' E 004°35'0 0.0
2017-Nov-13 23:00N 52°28' E 004°35'0 0.0
2017-Nov-13 22:30N 52°28' E 004°35'0 0.0
2017-Nov-13 22:00N 52°28' E 004°35'  
Track history (hours):
 
Tides and Currents Weather Stations Pressure Air Temp Water Temp Dewpoint Dewpoint Depression Visibility Wind Speed Wind Dir Waves Ship Positions

Stad Amsterdam (Netherlands)

Ship's website: http://www.stadamsterdam.com/content/home/index.xml

Last reported at 2017-Nov-23 14:24 UTC. Time now 2017-Nov-23 14:38 UTC.
Position N 41°11' W 008°42'.

Length 76 m; beam 10 m.

Type: Sailing vessel. MMSI: 246494000.

Date/timePositionNaut miles runAvg speedWind from/ knotsBaromVisibWave heightAir tempDewpointWater temp
2017-Nov-23 14:24N 41°11' W 008°42'0 0.0
2017-Nov-23 14:00N 41°11' W 008°42'0 0.0
2017-Nov-23 13:30N 41°11' W 008°42'2 4.6
2017-Nov-23 13:01N 41°09' W 008°43'2 3.2
2017-Nov-23 12:30N 41°10' W 008°45'3 5.2
2017-Nov-23 11:55N 41°13' W 008°46'  
2017-Nov-19 00:04N 47°06' W 007°18'8 8.8
2017-Nov-18 23:08N 47°14' W 007°13'2 9.0
2017-Nov-18 22:55N 47°16' W 007°11'4 9.2
2017-Nov-18 22:27N 47°19' W 007°09'5 9.8
2017-Nov-18 21:58N 47°24' W 007°06'510.2
2017-Nov-18 21:26N 47°29' W 007°02'510.1
2017-Nov-18 20:59N 47°33' W 006°59'510.2
2017-Nov-18 20:29N 47°37' W 006°55'510.1
2017-Nov-18 19:59N 47°41' W 006°51'610.1
2017-Nov-18 19:25N 47°46' W 006°47'7 9.7
2017-Nov-18 18:41N 47°52' W 006°42'2 9.5
2017-Nov-18 18:28N 47°54' W 006°41'4 9.3
2017-Nov-18 17:59N 47°58' W 006°38'11 8.8
2017-Nov-18 16:46N 48°08' W 006°31'46 7.9
2017-Nov-18 10:57N 48°47' W 005°54'234 6.5
2017-Nov-16 23:05N 50°33' W 000°31'1 6.8
2017-Nov-16 23:00N 50°33' W 000°30'4 8.6
2017-Nov-16 22:30N 50°34' W 000°24'5 9.9
2017-Nov-16 22:00N 50°35' W 000°16'510.1
2017-Nov-16 21:30N 50°36' W 000°09'5 9.1
2017-Nov-16 21:00N 50°37' W 000°02'4 8.1
2017-Nov-16 20:30N 50°38' E 000°05'3 5.8
2017-Nov-16 20:01N 50°38' E 000°09'1 2.2
2017-Nov-16 19:30N 50°38' E 000°11'1 2.4
2017-Nov-16 19:00N 50°39' E 000°13'1 2.8
2017-Nov-16 18:30N 50°40' E 000°14'1 2.9
2017-Nov-16 18:01N 50°42' E 000°14'2 3.1
2017-Nov-16 17:31N 50°43' E 000°14'2 2.2
2017-Nov-16 16:50N 50°42' E 000°13'5 4.6
2017-Nov-16 15:43N 50°37' E 000°15'1 4.0
2017-Nov-16 15:28N 50°38' E 000°16'3 5.7
2017-Nov-16 15:01N 50°40' E 000°17'3 5.9
2017-Nov-16 14:31N 50°43' E 000°18'1 2.4
2017-Nov-16 14:00N 50°42' E 000°19'3 4.7
2017-Nov-16 13:28N 50°40' E 000°21'2 3.9
2017-Nov-16 13:00N 50°39' E 000°24'2 3.7
2017-Nov-16 12:24N 50°37' E 000°26'3 6.6
2017-Nov-16 12:00N 50°38' E 000°30'3 6.5
2017-Nov-16 11:31N 50°39' E 000°34'4 7.0
2017-Nov-16 11:00N 50°41' E 000°39'4 7.5
2017-Nov-16 10:31N 50°43' E 000°44'3 6.7
2017-Nov-16 10:00N 50°45' E 000°48'3 7.0
2017-Nov-16 09:31N 50°47' E 000°53'4 7.0
2017-Nov-16 08:59N 50°49' E 000°57'13 7.3
2017-Nov-16 07:11N 50°58' E 001°13'2 8.7
2017-Nov-16 06:59N 50°59' E 001°16'5 9.4
2017-Nov-16 06:30N 51°01' E 001°21'510.3
2017-Nov-16 06:00N 51°05' E 001°28'510.8
2017-Nov-16 05:31N 51°08' E 001°34'510.2
2017-Nov-16 05:00N 51°11' E 001°40'5 9.6
2017-Nov-16 04:31N 51°15' E 001°46'5 9.4
2017-Nov-16 04:01N 51°19' E 001°50'4 8.7
2017-Nov-16 03:30N 51°23' E 001°53'4 8.1
2017-Nov-16 03:01N 51°27' E 001°54'4 7.4
2017-Nov-16 02:31N 51°30' E 001°58'4 6.8
2017-Nov-16 01:58N 51°32' E 002°02'92 7.9
2017-Nov-15 14:23N 52°31' E 003°57'3 9.2
2017-Nov-15 14:01N 52°31' E 004°03'4 8.8
2017-Nov-15 13:31N 52°31' E 004°10'4 8.9
2017-Nov-15 13:00N 52°31' E 004°18'4 8.4
2017-Nov-15 12:30N 52°30' E 004°24'4 8.4
2017-Nov-15 12:00N 52°28' E 004°31'3 5.1
2017-Nov-15 11:28N 52°28' E 004°35'0 0.5
2017-Nov-15 11:01N 52°28' E 004°35'0 0.4
2017-Nov-15 10:30N 52°28' E 004°35'0 0.2
2017-Nov-15 10:00N 52°28' E 004°35'0 0.1
2017-Nov-15 09:30N 52°28' E 004°35'0 0.6
2017-Nov-15 08:58N 52°28' E 004°35'0 0.0
2017-Nov-15 08:28N 52°28' E 004°35'0 0.0
2017-Nov-15 07:58N 52°28' E 004°35'0 0.0
2017-Nov-15 07:28N 52°28' E 004°35'0 0.0
2017-Nov-15 06:58N 52°28' E 004°35'0 0.0
2017-Nov-15 06:28N 52°28' E 004°35'0 0.0
2017-Nov-15 05:58N 52°28' E 004°35'0 0.0
2017-Nov-15 05:28N 52°28' E 004°35'0 0.0
2017-Nov-15 04:58N 52°28' E 004°35'0 0.0
2017-Nov-15 04:28N 52°28' E 004°35'0 0.0
2017-Nov-15 03:58N 52°28' E 004°35'0 0.0
2017-Nov-15 03:28N 52°28' E 004°35'0 0.0
2017-Nov-15 02:55N 52°28' E 004°35'0 0.0
2017-Nov-15 02:28N 52°28' E 004°35'0 0.0
2017-Nov-15 01:58N 52°28' E 004°35'0 0.0
2017-Nov-15 01:28N 52°28' E 004°35'0 0.0
2017-Nov-15 00:58N 52°28' E 004°35'0 0.0
2017-Nov-15 00:28N 52°28' E 004°35'0 0.0
2017-Nov-14 23:58N 52°28' E 004°35'0 0.0
2017-Nov-14 23:28N 52°28' E 004°35'0 0.0
2017-Nov-14 22:58N 52°28' E 004°35'0 0.0
2017-Nov-14 22:19N 52°28' E 004°35'0 0.0
2017-Nov-14 21:58N 52°28' E 004°35'0 0.0
2017-Nov-14 21:28N 52°28' E 004°35'0 0.0
2017-Nov-14 20:58N 52°28' E 004°35'0 0.0
2017-Nov-14 20:30N 52°28' E 004°35'0 0.0
2017-Nov-14 20:00N 52°28' E 004°35'0 0.0
2017-Nov-14 19:30N 52°28' E 004°35'0 0.0
2017-Nov-14 19:00N 52°28' E 004°35'0 0.0
2017-Nov-14 18:30N 52°28' E 004°35'0 0.0
2017-Nov-14 18:00N 52°28' E 004°35'0 0.0
2017-Nov-14 17:30N 52°28' E 004°35'0 0.0
2017-Nov-14 17:00N 52°28' E 004°35'0 0.0
2017-Nov-14 16:30N 52°28' E 004°35'0 0.0
2017-Nov-14 16:00N 52°28' E 004°35'0 0.0
2017-Nov-14 15:30N 52°28' E 004°35'0 0.0
2017-Nov-14 15:00N 52°28' E 004°35'0 0.0
2017-Nov-14 14:30N 52°28' E 004°35'0 0.0
2017-Nov-14 14:00N 52°28' E 004°35'0 0.0
2017-Nov-14 13:30N 52°28' E 004°35'0 0.0
2017-Nov-14 13:00N 52°28' E 004°35'0 0.0
2017-Nov-14 12:30N 52°28' E 004°35'0 0.0
2017-Nov-14 12:00N 52°28' E 004°35'0 0.0
2017-Nov-14 11:30N 52°28' E 004°35'0 0.0
2017-Nov-14 11:00N 52°28' E 004°35'0 0.0
2017-Nov-14 10:30N 52°28' E 004°35'0 0.0
2017-Nov-14 10:00N 52°28' E 004°35'0 0.0
2017-Nov-14 09:30N 52°28' E 004°35'0 0.0
2017-Nov-14 09:00N 52°28' E 004°35'0 0.0
2017-Nov-14 08:30N 52°28' E 004°35'0 0.0
2017-Nov-14 08:00N 52°28' E 004°35'0 0.0
2017-Nov-14 07:30N 52°28' E 004°35'0 0.0
2017-Nov-14 07:00N 52°28' E 004°35'0 0.0
2017-Nov-14 06:30N 52°28' E 004°35'0 0.0
2017-Nov-14 06:00N 52°28' E 004°35'0 0.0
2017-Nov-14 05:30N 52°28' E 004°35'0 0.0
2017-Nov-14 05:00N 52°28' E 004°35'0 0.0
2017-Nov-14 04:30N 52°28' E 004°35'0 0.0
2017-Nov-14 04:00N 52°28' E 004°35'0 0.0
2017-Nov-14 03:30N 52°28' E 004°35'0 0.0
2017-Nov-14 03:00N 52°28' E 004°35'0 0.0
2017-Nov-14 02:27N 52°28' E 004°35'0 0.0
2017-Nov-14 02:00N 52°28' E 004°35'0 0.0
2017-Nov-14 01:30N 52°28' E 004°35'0 0.0
2017-Nov-14 01:00N 52°28' E 004°35'0 0.0
2017-Nov-14 00:30N 52°28' E 004°35'0 0.0
2017-Nov-14 00:00N 52°28' E 004°35'0 0.0
2017-Nov-13 23:30N 52°28' E 004°35'0 0.0
2017-Nov-13 23:00N 52°28' E 004°35'0 0.0
2017-Nov-13 22:30N 52°28' E 004°35'0 0.0
2017-Nov-13 22:00N 52°28' E 004°35'  

Dump ship's entire track history